FW8128 Weather Reports


Display with metric or nautical units.
time (UTC)temp
F
wind
direction
speed
MPH
gust
MPH
rain 1hr
in
rain 24hr
in
rain mn
in
humidity
%
barometer
mb
20260510201901 84 230 2.0 5.0 0.00 0.00 0.00 36 1013.6
20260510201633 85 0 1.0 4.0 0.00 0.00 0.00 35 1013.6
20260510200901 84 0 1.0 4.0 0.00 0.00 0.00 35 1013.7
20260510200359 84 206 2.0 5.0 0.00 0.00 0.00 35 1013.8
20260510200130 84 302 2.0 5.0 0.00 0.00 0.00 37 1013.8
20260510195359 84 312 1.0 4.0 0.00 0.00 0.00 34 1013.9
20260510194856 84 0 1.0 4.0 0.00 0.00 0.00 36 1013.9
20260510194355 83 0 1.0 5.0 0.00 0.00 0.00 39 1013.9
20260510194126 83 16 3.0 8.0 0.00 0.00 0.00 35 1013.9
20260510193356 84 121 2.0 8.0 0.00 0.00 0.00 36 1013.9
20260510192856 85 329 1.0 4.0 0.00 0.00 0.00 36 1014.0
20260510192356 85 346 1.0 5.0 0.00 0.00 0.00 34 1014.0
20260510191856 84 0 1.0 5.0 0.00 0.00 0.00 37 1014.1
20260510191356 85 118 1.0 5.0 0.00 0.00 0.00 37 1014.1
20260510190853 85 135 1.0 3.0 0.00 0.00 0.00 36 1014.2
20260510190353 84 129 0.0 3.0 0.00 0.00 0.00 36 1014.2
20260510185853 84 0 1.0 3.0 0.00 0.00 0.00 37 1014.2
20260510185353 83 139 1.0 6.0 0.00 0.00 0.00 37 1014.3
20260510184851 83 121 2.0 6.0 0.00 0.00 0.00 37 1014.3
20260510184351 83 0 2.0 6.0 0.00 0.00 0.00 36 1014.3
20260510183851 83 342 2.0 5.0 0.00 0.00 0.00 38 1014.3
20260510183623 83 79 1.0 5.0 0.00 0.00 0.00 40 1014.3
20260510182851 83 20 1.0 4.0 0.00 0.00 0.00 41 1014.3
20260510182351 83 0 1.0 4.0 0.00 0.00 0.00 37 1014.4
20260510181851 82 136 1.0 4.0 0.00 0.00 0.00 39 1014.5
20260510181351 82 98 2.0 5.0 0.00 0.00 0.00 39 1014.5
20260510180851 83 115 1.0 5.0 0.00 0.00 0.00 38 1014.5
20260510180350 83 148 1.0 4.0 0.00 0.00 0.00 38 1014.5
20260510175851 83 0 1.0 4.0 0.00 0.00 0.00 39 1014.6
20260510175348 83 123 1.0 3.0 0.00 0.00 0.00 38 1014.7
20260510174850 83 128 1.0 4.0 0.00 0.00 0.00 36 1014.7
20260510174350 82 0 1.0 5.0 0.00 0.00 0.00 39 1014.8
20260510173846 82 356 1.0 5.0 0.00 0.00 0.00 42 1014.9
20260510173346 82 0 1.0 4.0 0.00 0.00 0.00 39 1014.9
20260510172846 81 313 1.0 5.0 0.00 0.00 0.00 38 1014.9
20260510172346 81 210 2.0 7.0 0.00 0.00 0.00 42 1015.0
20260510171846 80 346 2.0 7.0 0.00 0.00 0.00 38 1015.1
20260510171346 80 0 2.0 6.0 0.00 0.00 0.00 37 1015.1
20260510170846 80 311 2.0 8.0 0.00 0.00 0.00 37 1015.1
20260510170618 80 0 2.0 8.0 0.00 0.00 0.00 38 1015.0
20260510170115 80 123 2.0 5.0 0.00 0.00 0.00 40 1015.2
20260510165341 79 60 2.0 9.0 0.00 0.00 0.00 43 1015.1
20260510165111 79 28 3.0 9.0 0.00 0.00 0.00 41 1015.1
20260510164341 79 355 2.0 8.0 0.00 0.00 0.00 42 1015.2
20260510163841 79 6 2.0 6.0 0.00 0.00 0.00 41 1015.1
20260510163340 79 0 1.0 6.0 0.00 0.00 0.00 41 1015.3
20260510162841 78 309 2.0 10.0 0.00 0.00 0.00 42 1015.3
20260510162340 78 0 3.0 10.0 0.00 0.00 0.00 40 1015.4
20260510161840 78 0 3.0 7.0 0.00 0.00 0.00 41 1015.5
20260510161347 78 342 3.0 9.0 0.00 0.00 0.00 45 1015.4
20260510161342 78 341 3.0 7.0 0.00 0.00 0.00 45 1015.5
20260510160342 78 337 3.0 9.0 0.00 0.00 0.00 47 1015.4
20260510155841 77 311 2.0 7.0 0.00 0.00 0.00 48 1015.5
20260510155338 77 150 3.0 7.0 0.00 0.00 0.00 48 1015.5
20260510155109 77 327 3.0 7.0 0.00 0.00 0.00 47 1015.5
20260510154336 77 203 2.0 7.0 0.00 0.00 0.00 50 1015.6
20260510154112 77 316 2.0 7.0 0.00 0.00 0.00 49 1015.6
20260510153836 77 10 3.0 7.0 0.00 0.00 0.00 49 1015.5
20260510153443 76 0 2.0 7.0 0.00 0.00 0.00 49 1015.7
20260510152336 76 4 2.0 7.0 0.00 0.00 0.00 53 1015.7
20260510151836 75 15 1.0 7.0 0.00 0.00 0.00 55 1015.8
20260510151336 75 0 2.0 8.0 0.00 0.00 0.00 54 1015.8
20260510150835 74 0 3.0 9.0 0.00 0.00 0.00 57 1015.9
20260510150336 74 327 3.0 9.0 0.00 0.00 0.00 52 1015.9
20260510145836 74 0 2.0 5.0 0.00 0.00 0.00 57 1015.9
20260510145336 74 0 2.0 5.0 0.00 0.00 0.00 59 1016.0
20260510144833 73 318 2.0 8.0 0.00 0.00 0.00 60 1016.1
20260510144333 73 42 3.0 8.0 0.00 0.00 0.00 59 1016.0
20260510143834 73 308 3.0 9.0 0.00 0.00 0.00 62 1016.0
20260510143333 73 20 3.0 9.0 0.00 0.00 0.00 63 1016.0
20260510142834 73 346 2.0 6.0 0.00 0.00 0.00 65 1016.1
20260510142334 73 26 1.0 6.0 0.00 0.00 0.00 66 1016.1
20260510141833 73 0 1.0 5.0 0.00 0.00 0.00 71 1016.1
20260510141334 73 348 2.0 5.0 0.00 0.00 0.00 70 1016.1
20260510140835 73 76 1.0 5.0 0.00 0.00 0.00 69 1016.1
20260510140334 72 348 1.0 5.0 0.00 0.00 0.00 70 1016.0
20260510135834 72 68 1.0 5.0 0.00 0.00 0.00 72 1016.0
20260510135334 71 20 1.0 5.0 0.00 0.00 0.00 73 1016.1
20260510135105 71 227 1.0 5.0 0.00 0.00 0.00 75 1016.1
20260510134333 70 0 1.0 5.0 0.00 0.00 0.00 75 1016.1
20260510134108 70 0 1.0 5.0 0.00 0.00 0.00 77 1016.0
20260510133334 70 0 1.0 5.0 0.00 0.00 0.00 77 1016.1
20260510132831 69 4 1.0 5.0 0.00 0.00 0.00 77 1016.2
20260510132332 69 328 1.0 4.0 0.00 0.00 0.00 79 1016.2
20260510131832 67 0 1.0 4.0 0.00 0.00 0.00 83 1016.2
20260510131331 66 0 2.0 4.0 0.00 0.00 0.00 84 1016.2
20260510130832 65 328 1.0 4.0 0.00 0.00 0.00 86 1016.2
20260510130332 65 355 0.0 3.0 0.00 0.00 0.00 91 1016.2
20260510130104 64 12 0.0 3.0 0.00 0.00 0.00 97 1016.2
20260510125332 64 0 0.0 3.0 0.00 0.00 0.00 97 1016.1
20260510124832 63 0 0.0 3.0 0.00 0.00 0.00 97 1016.1
20260510124329 62 35 1.0 4.0 0.00 0.00 0.00 96 1016.1
20260510123830 62 328 1.0 4.0 0.00 0.00 0.00 96 1016.1
20260510123600 62 0 0.0 4.0 0.00 0.00 0.00 96 1016.0
20260510122829 61 0 1.0 4.0 0.00 0.00 0.00 96 1015.9
20260510122330 60 0 1.0 4.0 0.00 0.00 0.00 96 1015.8
20260510121833 59 0 0.0 0.0 0.00 0.00 0.00 96 1015.6
20260510121558 58 0 0.0 0.0 0.00 0.00 0.00 96 1015.5
20260510120828 57 0 0.0 0.0 0.00 0.00 0.00 96 1015.4
20260510120327 56 0 0.0 0.0 0.00 0.00 0.00 96 1015.4
20260510115827 56 0 0.0 0.0 0.00 0.00 0.00 96 1015.3
20260510115329 56 0 0.0 0.0 0.00 0.00 0.00 96 1015.3
20260510114827 55 0 0.0 0.0 0.00 0.00 0.00 96 1015.1
20260510114559 55 0 0.0 0.0 0.00 0.00 0.00 95 1015.1
20260510113829 55 0 0.0 0.0 0.00 0.00 0.00 95 1015.1
20260510113327 54 0 0.0 0.0 0.00 0.00 0.00 95 1015.0
20260510112829 54 0 0.0 0.0 0.00 0.00 0.00 95 1014.9
20260510112327 54 0 0.0 0.0 0.00 0.00 0.00 95 1014.8
20260510111829 54 0 0.0 0.0 0.00 0.00 0.00 95 1014.7
20260510111314 54 0 0.0 0.0 0.00 0.00 0.00 95 1014.6
20260510110815 54 0 0.0 0.0 0.00 0.00 0.00 95 1014.5
20260510110314 53 0 0.0 0.0 0.00 0.00 0.00 95 1014.5
20260510105815 53 0 0.0 0.0 0.00 0.00 0.00 95 1014.4
20260510105314 54 0 0.0 0.0 0.00 0.00 0.00 95 1014.3
20260510104815 54 0 0.0 0.0 0.00 0.00 0.00 95 1014.3
20260510104315 54 0 0.0 0.0 0.00 0.00 0.00 95 1014.2
20260510103816 54 0 0.0 0.0 0.00 0.00 0.00 95 1014.2
20260510103313 54 0 0.0 0.0 0.00 0.00 0.00 95 1014.1
20260510102816 54 0 0.0 0.0 0.00 0.00 0.00 95 1014.1
20260510102313 54 0 0.0 0.0 0.00 0.00 0.00 95 1014.0
20260510101802 54 0 0.0 0.0 0.00 0.00 0.00 95 1014.0
20260510101258 54 0 0.0 0.0 0.00 0.00 0.00 95 1013.9
20260510100759 54 0 0.0 0.0 0.00 0.00 0.00 95 1013.9
20260510100531 54 0 0.0 0.0 0.00 0.00 0.00 95 1013.8
20260510095759 54 0 0.0 0.0 0.00 0.00 0.00 95 1013.7
20260510095535 55 0 0.0 0.0 0.00 0.00 0.00 95 1013.6
20260510095259 55 0 0.0 0.0 0.00 0.00 0.00 95 1013.6
20260510094532 55 0 0.0 0.0 0.00 0.00 0.00 95 1013.5
20260510093759 55 0 0.0 0.0 0.00 0.00 0.00 95 1013.4
20260510093531 55 0 0.0 0.0 0.00 0.00 0.00 95 1013.4
20260510092759 55 0 0.0 0.0 0.00 0.00 0.00 95 1013.4
20260510092259 55 0 0.0 0.0 0.00 0.00 0.00 95 1013.4
20260510091759 55 0 0.0 0.0 0.00 0.00 0.00 95 1013.3
20260510091259 55 0 0.0 0.0 0.00 0.00 0.00 95 1013.3
20260510090744 55 0 0.0 0.0 0.00 0.00 0.00 95 1013.2
20260510090245 56 0 0.0 0.0 0.00 0.00 0.00 95 1013.1
20260510090017 56 0 0.0 0.0 0.00 0.00 0.00 95 1013.1
20260510085245 56 0 0.0 0.0 0.00 0.00 0.00 95 1013.1
20260510084745 56 0 0.0 0.0 0.00 0.00 0.00 95 1012.9
20260510084252 56 0 0.0 0.0 0.00 0.00 0.00 95 1012.7
20260510084246 56 0 0.0 0.0 0.00 0.00 0.00 95 1012.8
20260510083518 56 0 0.0 0.0 0.00 0.00 0.00 95 1012.7
20260510082745 56 0 0.0 0.0 0.00 0.00 0.00 95 1012.7
20260510082518 56 0 0.0 0.0 0.00 0.00 0.00 95 1012.7
20260510082017 57 0 0.0 0.0 0.00 0.00 0.00 95 1012.7
20260510081247 57 0 0.0 0.0 0.00 0.00 0.00 95 1012.7
20260510080745 57 0 0.0 0.0 0.00 0.00 0.00 95 1012.7
20260510080733 57 0 0.0 0.0 0.00 0.00 0.00 95 1012.7
20260510080002 57 0 0.0 0.0 0.00 0.00 0.00 95 1012.6
20260510075232 57 0 0.0 0.0 0.00 0.00 0.00 95 1012.5
20260510074731 57 0 0.0 0.0 0.00 0.00 0.00 95 1012.5
20260510074232 57 0 0.0 0.0 0.00 0.00 0.00 95 1012.4
20260510073731 57 0 0.0 0.0 0.00 0.00 0.00 95 1012.4
20260510073231 58 0 0.0 0.0 0.00 0.00 0.00 95 1012.4
20260510072730 57 0 0.0 0.0 0.00 0.00 0.00 95 1012.3
20260510072237 58 0 0.0 0.0 0.00 0.00 0.00 95 1012.3
20260510072230 57 0 0.0 0.0 0.00 0.00 0.00 95 1012.3
20260510071730 58 0 0.0 0.0 0.00 0.00 0.00 95 1012.3
20260510070730 57 0 0.0 0.0 0.00 0.00 0.00 95 1012.3
20260510070448 57 0 0.0 1.0 0.00 0.00 0.00 95 1012.3
20260510065716 57 0 0.0 1.0 0.00 0.00 0.00 95 1012.1
20260510065217 57 0 0.0 0.0 0.00 0.00 0.00 95 1012.1
20260510064717 57 0 0.0 0.0 0.00 0.00 0.00 95 1012.2
20260510064218 57 0 0.0 0.0 0.00 0.00 0.00 95 1012.2
20260510063717 57 0 0.0 0.0 0.00 0.00 0.00 95 1012.2
20260510063218 57 0 0.0 0.0 0.00 0.00 0.00 95 1012.2
20260510062717 57 0 0.0 0.0 0.00 0.00 0.00 95 1012.3
20260510062218 58 0 0.0 0.0 0.00 0.00 0.00 95 1012.2
20260510061717 58 0 0.0 0.0 0.00 0.00 0.00 95 1012.3
20260510061219 58 0 0.0 0.0 0.00 0.00 0.00 95 1012.4
20260510060717 58 0 0.0 0.0 0.00 0.00 0.00 95 1012.3
20260510060219 58 0 0.0 0.0 0.00 0.00 0.00 95 1012.3
20260510055702 58 0 0.0 1.0 0.00 0.00 0.00 95 1012.4
20260510055204 58 0 0.0 1.0 0.00 0.00 0.00 95 1012.4
20260510054703 58 0 0.0 0.0 0.00 0.00 0.00 95 1012.3
20260510054204 58 0 0.0 0.0 0.00 0.00 0.00 95 1012.3
20260510053933 58 0 0.0 0.0 0.00 0.00 0.00 95 1012.2
20260510053203 58 0 0.0 0.0 0.00 0.00 0.00 95 1012.3
20260510052703 58 0 0.0 0.0 0.00 0.00 0.00 95 1012.3
20260510052203 58 0 0.0 0.0 0.00 0.00 0.00 95 1012.3
20260510051703 58 0 0.0 0.0 0.00 0.00 0.00 95 1012.4
20260510051204 58 0 0.0 0.0 0.00 0.00 0.00 95 1012.5
20260510050703 58 0 0.0 0.0 0.00 0.00 0.00 95 1012.5
20260510050204 59 0 0.0 0.0 0.00 0.00 0.00 95 1012.6
20260510045704 59 0 0.0 0.0 0.00 0.00 0.00 95 1012.5
20260510045149 59 0 0.0 0.0 0.00 0.00 0.00 95 1012.5
20260510044920 59 0 0.0 0.0 0.00 0.00 0.00 95 1012.4
20260510044149 59 0 0.0 0.0 0.00 0.00 0.00 95 1012.5
20260510043636 59 0 0.0 0.0 0.00 0.00 0.00 95 1012.6
20260510043137 59 0 0.0 0.0 0.00 0.00 0.00 95 1012.6
20260510042634 60 0 0.0 0.0 0.00 0.00 0.00 95 1012.7
20260510042135 60 0 0.0 0.0 0.00 0.00 0.00 95 1012.7
20260510041634 60 0 0.0 0.0 0.00 0.00 0.00 95 1012.7
20260510041136 59 0 0.0 0.0 0.00 0.00 0.00 95 1012.6
20260510040621 59 0 0.0 0.0 0.00 0.00 0.00 95 1012.7
20260510040121 59 0 0.0 0.0 0.00 0.00 0.00 95 1012.8
20260510035621 59 0 0.0 0.0 0.00 0.00 0.00 95 1012.7
20260510035106 60 0 0.0 0.0 0.00 0.00 0.00 95 1012.7
20260510034606 60 0 0.0 0.0 0.00 0.00 0.00 95 1012.7
20260510034106 60 0 0.0 0.0 0.00 0.00 0.00 95 1012.7
20260510033606 60 0 0.0 0.0 0.00 0.00 0.00 95 1012.6
20260510033338 60 0 0.0 0.0 0.00 0.00 0.00 95 1012.6
20260510032606 60 0 0.0 0.0 0.00 0.00 0.00 95 1012.6
20260510032106 60 0 0.0 0.0 0.00 0.00 0.00 95 1012.6
20260510031605 60 0 0.0 0.0 0.00 0.00 0.00 95 1012.6
20260510031337 60 0 0.0 0.0 0.00 0.00 0.00 95 1012.5
20260510030605 61 0 0.0 0.0 0.00 0.00 0.00 95 1012.5
20260510030107 61 0 0.0 0.0 0.00 0.00 0.00 95 1012.6
20260510025605 61 0 0.0 0.0 0.00 0.00 0.00 95 1012.6
20260510025053 61 0 0.0 0.0 0.00 0.00 0.00 95 1012.5
20260510024550 61 0 0.0 0.0 0.00 0.00 0.00 95 1012.4
20260510024050 61 0 0.0 0.0 0.00 0.00 0.00 95 1012.4
20260510023551 61 0 0.0 0.0 0.00 0.00 0.00 95 1012.4
20260510023323 61 0 0.0 2.0 0.00 0.00 0.00 95 1012.3
20260510022550 61 0 0.0 2.0 0.00 0.00 0.00 95 1012.3
20260510022051 61 0 0.0 0.0 0.00 0.00 0.00 95 1012.3
20260510021551 62 0 0.0 0.0 0.00 0.00 0.00 95 1012.4
20260510021051 62 0 0.0 0.0 0.00 0.00 0.00 95 1012.4
20260510020551 62 0 0.0 1.0 0.00 0.00 0.00 95 1012.3
20260510020051 62 0 0.0 2.0 0.00 0.00 0.00 95 1012.2
20260510015551 62 0 0.0 2.0 0.00 0.00 0.00 95 1012.1
20260510015052 62 0 0.0 1.0 0.00 0.00 0.00 95 1012.1
20260510014536 62 225 0.0 1.0 0.00 0.00 0.00 95 1012.1
20260510014037 62 0 0.0 0.0 0.00 0.00 0.00 94 1011.9
20260510013536 62 0 0.0 0.0 0.00 0.00 0.00 94 1011.8
20260510013036 62 0 0.0 0.0 0.00 0.00 0.00 94 1011.7
20260510012537 62 0 0.0 0.0 0.00 0.00 0.00 94 1011.6
20260510012309 62 0 0.0 0.0 0.00 0.00 0.00 93 1011.6
20260510011535 63 0 0.0 0.0 0.00 0.00 0.00 93 1011.6
20260510011035 63 0 0.0 0.0 0.00 0.00 0.00 92 1011.5
20260510010536 63 0 0.0 0.0 0.00 0.00 0.00 92 1011.5
20260510010036 63 0 0.0 0.0 0.00 0.00 0.00 92 1011.3
20260510005536 64 0 0.0 0.0 0.00 0.00 0.00 91 1011.3
20260510005036 64 0 0.0 0.0 0.00 0.00 0.00 90 1011.2
20260510004536 64 0 0.0 0.0 0.00 0.00 0.00 90 1011.1
20260510004022 65 0 0.0 0.0 0.00 0.00 0.00 89 1011.0
20260510003522 65 0 0.0 0.0 0.00 0.00 0.00 88 1010.8
20260510003023 65 0 0.0 0.0 0.00 0.00 0.00 88 1010.8
20260510002523 66 0 0.0 0.0 0.00 0.00 0.00 87 1010.7
20260510002023 66 0 0.0 0.0 0.00 0.00 0.00 87 1010.7
20260510001754 67 0 0.0 0.0 0.00 0.00 0.00 86 1010.8
20260510001023 67 0 0.0 0.0 0.00 0.00 0.00 85 1010.7
20260510000523 67 0 0.0 0.0 0.00 0.00 0.00 85 1010.7
20260510000021 68 0 0.0 0.0 0.00 0.00 0.00 84 1010.5
20260509235521 68 0 0.0 0.0 0.00 0.00 0.00 83 1010.4
20260509235021 68 0 0.0 0.0 0.00 0.00 0.00 82 1010.4
20260509234520 69 0 0.0 2.0 0.00 0.00 0.00 81 1010.4
20260509234020 69 0 0.0 2.0 0.00 0.00 0.00 81 1010.4
20260509233521 69 0 0.0 0.0 0.00 0.00 0.00 80 1010.4
20260509233021 70 0 0.0 2.0 0.00 0.00 0.00 79 1010.3
20260509232753 70 0 0.0 2.0 0.00 0.00 0.00 79 1010.4
20260509232630 70 280 0.0 2.0 0.00 0.00 0.00 78 1010.4
20260509231522 71 0 0.0 2.0 0.00 0.00 0.00 77 1010.3
20260509231022 71 0 0.0 0.0 0.00 0.00 0.00 77 1010.3
20260509230521 71 0 0.0 2.0 0.00 0.00 0.00 76 1010.3
20260509230249 71 0 0.0 2.0 0.00 0.00 0.00 76 1010.1
20260509225519 71 0 0.0 2.0 0.00 0.00 0.00 76 1009.9
20260509225018 71 0 0.0 3.0 0.00 0.00 0.00 75 1010.0
20260509224519 71 0 1.0 4.0 0.00 0.00 0.00 74 1010.0
20260509224018 72 0 1.0 4.0 0.00 0.00 0.00 74 1009.9
20260509223519 72 0 1.0 6.0 0.00 0.00 0.00 74 1009.7
20260509223019 72 0 1.0 6.0 0.00 0.00 0.00 73 1009.8
20260509222519 72 0 1.0 6.0 0.00 0.00 0.00 73 1009.8
20260509222249 72 0 1.0 6.0 0.00 0.00 0.00 72 1009.8
20260509221519 72 0 1.0 5.0 0.00 0.00 0.00 72 1009.7
20260509221248 72 240 1.0 4.0 0.00 0.00 0.00 72 1009.7
20260509220517 72 258 1.0 4.0 0.00 0.00 0.00 72 1009.7
20260509220249 73 240 1.0 5.0 0.00 0.00 0.00 71 1009.8
20260509215517 73 268 2.0 5.0 0.00 0.00 0.00 71 1009.7
20260509215016 73 0 2.0 5.0 0.00 0.00 0.00 71 1009.7
20260509214517 73 331 2.0 5.0 0.00 0.00 0.00 72 1009.8
20260509214017 73 306 1.0 4.0 0.00 0.00 0.00 71 1009.8
20260509213747 73 0 1.0 5.0 0.00 0.00 0.00 71 1009.8
20260509213248 72 0 1.0 5.0 0.00 0.00 0.00 73 1009.8
20260509212517 72 0 2.0 5.0 0.00 0.00 0.00 73 1009.6
20260509212016 72 322 2.0 5.0 0.00 0.00 0.00 73 1009.6
20260509211517 73 110 2.0 6.0 0.00 0.00 0.00 74 1009.5
20260509211014 73 309 2.0 6.0 0.00 0.00 0.00 72 1009.5
20260509210514 73 0 1.0 5.0 0.00 0.00 0.00 73 1009.5
20260509210015 73 0 2.0 8.0 0.00 0.00 0.00 73 1009.6
20260509205512 73 303 2.0 8.0 0.00 0.00 0.00 73 1009.7
20260509205009 73 307 3.0 9.0 0.00 0.00 0.00 72 1009.4
20260509204508 73 89 3.0 9.0 0.00 0.00 0.00 73 1009.5
20260509204009 73 305 2.0 7.0 0.00 0.00 0.00 73 1009.5
20260509203509 73 309 1.0 7.0 0.00 0.00 0.00 72 1009.5
20260509203009 73 56 1.0 4.0 0.00 0.00 0.00 74 1009.5
20260509202509 73 101 1.0 5.0 0.00 0.00 0.00 74 1009.5
20260509202008 73 0 2.0 7.0 0.00 0.00 0.00 74 1009.5